Location: Mansfield Dam
(30.3944°N, 97.9097°W)
Time: 23:28:36
(UTC-06:00)

Daily predictions for brighter satellites

Satellite Brightness Start Highest point End
(mag) Time Altitude Azimuth Time Altitude Azimuth Time Altitude Azimuth
H-2A ROCKET BODY 4.1 17:59:50 10° WSW 18:05:31 69° SSE 18:39:17 10° E
SL-8 Rocket 4.0 18:17:13 10° N 18:23:25 75° E 18:29:39 10° S
SMAP 3.7 18:21:27 10° S 18:26:03 64° W 18:30:40 10° NNW
Meteor 2-8 Rocket 4.5 18:20:25 10° S 18:26:32 82° E 18:32:42 10° N
EO 1 Del DPAF 3.8 18:24:24 10° NNE 18:27:59 37° E 18:31:32 10° SSE
CORIOLIS 4.4 18:23:43 10° S 18:29:03 78° WSW 18:34:25 10° NNW
Landsat 4 3.7 18:26:27 10° NNE 18:30:07 59° E 18:33:46 10° S
Tiangong 1 2.9 18:29:33 10° N 18:30:09 11° NNE 18:30:45 10° NNE
IRS-1A Rocket 4.2 18:26:22 10° SSE 18:31:50 70° ENE 18:37:24 10° N
Cosmos 2218 Rocket 3.9 18:26:27 10° N 18:32:36 73° E 18:38:42 10° SSE
Cosmos 1743 Rocket 4.2 18:30:01 10° SSE 18:33:59 34° E 18:37:54 10° NNE
ERS-2 3.5 18:32:27 10° ESE 18:35:03 19° ENE 18:37:39 10° NNE
Ariane Rocket 3.7 18:30:39 10° S 18:35:36 60° WSW 18:40:38 10° NNW
Cosmos 1656 Rocket 3.8 18:31:24 10° N 18:36:44 50° ENE 18:42:06 10° SE
Cosmos 2228 Rocket 4.1 18:37:09 10° NNE 18:41:01 26° E 18:44:50 10° SE
Cosmos 1703 3.4 18:37:36 10° S 18:41:27 55° E 18:45:21 10° NNE
SL-24 R/B - RUBIN 2 3.8 18:38:08 10° NNW 18:42:22 45° ENE 18:46:29 10° SE
Cosmos 1328 Rocket 4.1 18:38:39 10° NNE 18:42:40 35° E 18:46:38 10° SSE
Cosmos 1300 3.6 18:39:26 10° NNW 18:43:09 53° W 18:46:52 10° S
Cosmos 2369 Rocket 4.4 18:39:48 10° NW 18:44:42 31° WSW 18:49:37 10° SSW
MOS 1 4.3 18:41:26 10° SSE 18:46:58 62° ENE 18:52:32 10° N
Cosmos 1943 Rocket 3.4 18:42:48 10° NNW 18:48:05 45° WSW 18:53:18 10° S
SL-08 R/B 4.5 18:47:21 10° N 18:53:31 88° E 18:59:37 10° S
Meteor 2-2 Rocket 4.2 18:50:01 10° N 18:55:43 89° E 19:01:21 10° S
FENGYUN 3A 3.6 18:56:56 10° SSE 19:02:16 86° ENE 19:07:39 10° N
SPOT 3 Rocket 3.4 18:59:37 10° SSE 19:04:43 71° ENE 19:09:51 10° N
ASTRO E2 2.6 19:01:25 10° W 19:05:24 75° N 19:07:29 27° E
Cosmos 2366 rocket 4.5 19:00:31 10° NNW 19:06:39 63° W 19:12:41 10° S
Cosmos 1777 Rocket 4.0 19:01:23 10° NNW 19:06:39 87° ENE 19:11:55 10° SSE
Cosmos 2058 3.0 19:05:47 10° S 19:09:56 79° W 19:14:08 10° N
YAOGAN 1 4.2 19:07:34 10° SSW 19:11:33 37° W 19:15:34 10° NNW
Cosmos 1821 Rocket 4.3 19:06:27 10° N 19:12:16 42° E 19:18:09 10° SSE
ALOS 2.7 19:08:58 10° S 19:13:34 63° W 19:18:12 10° NNW
Cosmos 1151 Rocket 3.1 19:10:03 10° N 19:14:21 53° E 19:18:36 10° SSE
Cosmos 332 Rocket 4.4 19:11:27 10° SSW 19:16:15 60° WNW 19:21:06 10° N
USA 81 3.9 19:11:34 10° S 19:16:50 81° E 19:22:06 10° N
Nadezhda 3 Rocket 4.1 19:12:56 10° S 19:19:14 82° W 19:25:37 10° N
Cosmos 2082 Rocket 3.2 19:15:18 10° SSE 19:19:36 24° ESE 19:19:36 24° ESE
Cosmos 2208 Rocket 4.0 19:18:10 10° SSW 19:23:25 90° ESE 19:28:46 10° NNE
H-2A R/B 2.6 19:24:43 10° SSE 19:28:30 85° E 19:32:20 10° N
Lacrosse 5 1.8 19:24:12 10° SSW 19:29:17 81° SE 19:31:29 35° NE
Cosmos 468 Rocket 3.8 19:25:37 10° S 19:30:41 66° ESE 19:33:21 28° NNE
Cosmos 2151 4.3 19:31:00 10° SSW 19:35:00 40° W 19:39:02 10° N
Cosmos 1814 Rocket 4.3 19:30:08 10° S 19:35:09 42° E 19:35:29 42° E
Cosmos 1346 Rocket 4.4 19:32:15 10° NNW 19:35:47 34° W 19:39:18 10° SSW
Cosmos 1455 3.0 19:36:53 10° NNW 19:40:36 52° W 19:44:17 10° S
CZ-4C R/B 1.8 19:36:19 10° SSW 19:41:16 79° ESE 19:43:03 42° NE
Hubble Space Telescope 1.7 19:40:12 10° SW 19:43:55 36° SSE 19:43:55 36° SSE
Cosmos 1833 Rocket 3.0 19:39:08 10° S 19:44:07 44° ESE 19:44:07 44° ESE
Cosmos 1763 Rocket 3.6 19:40:31 10° S 19:45:02 49° ESE 19:45:02 49° ESE
Centaur AC-64 3.6 19:45:21 10° SW 19:47:56 33° SSE 19:48:14 33° SSE
Cosmos 1934 Rocket 3.9 19:42:00 10° N 19:48:19 63° E 19:54:36 10° SSE
OAO 3 Rocket 3.0 19:44:11 10° WNW 19:48:54 87° SSW 19:49:18 74° ESE
FengYun 1-2 T 4.4 19:44:52 10° S 19:50:29 74° WSW 19:56:06 10° NNW
NOSS 3-4 (A) 4.4 19:44:25 10° NW 19:51:34 61° WSW 19:59:09 10° SSE
NOSS 3-4 (C) 4.4 19:44:31 10° NW 19:51:41 62° WSW 19:59:17 10° SSE
ISS -2.2 19:51:26 10° SW 19:53:30 34° WSW 19:53:30 34° WSW
SEDSat Delta rocket 3.8 19:49:20 10° W 19:56:04 82° N 19:57:13 62° ENE
Cosmos 1727 Rocket 4.5 19:55:50 10° SSE 19:59:58 40° SE 19:59:58 40° SE
Atlas Centaur 2 4.1 20:12:48 10° SSW 20:16:54 20° SSE 20:16:54 20° SSE
Centaur D-1A AC-32 3.6 20:22:41 10° SW 20:25:56 47° S 20:25:56 47° S
Delta 168 4.4 20:22:19 10° W 20:28:14 47° SW 20:28:14 47° SW
Cosmos 2082 Rocket 4.0 20:58:27 10° SW 21:01:32 27° WSW 21:01:32 27° WSW
